Weather observations for the past three days for
Charlottesville-Albemarle Airport
Imperial (Metric)
Date Time (edt) Wind (mph) Vis. (mi.) Weather Sky Cond. Temperature (ºF) Relative Humidity Wind Chill (°F) Heat Index (°F) Pressure Precipitation (in)
Air Dwpt 6 hour altimeter (in) sea level (mb) 1 hr 3 hr 6 hr
Max. Min.
14 08:53 Calm 10.00 Fair CLR 81 72 74% 85 30.1 1018.3
14 07:53 SW 3 10.00 Fair CLR 75.9 72 75.9 71.1 88% 76 30.1 1018.4
14 06:53 Calm 10.00 Fair CLR 73 71.1 94% 30.09 1018.2
14 05:53 Calm 10.00 Fair CLR 72 71.1 97% 30.08 1017.9
14 04:53 NW 3 8.00 Fair CLR 72 71.1 97% 30.09 1018.0
14 03:53 Calm 10.00 Fair CLR 73.9 72 94% 30.08 1017.7
14 02:53 Calm 10.00 Fair CLR 73.9 72 94% 30.09 1018.2
14 01:53 Calm 10.00 Overcast OVC110 75.9 72 84.9 75 88% 76 30.1 1018.4
14 00:53 Calm 10.00 Overcast OVC090 75.9 72 88% 76 30.12 1019.2
13 23:53 Calm 10.00 Partly Cloudy FEW085 SCT100 75.9 72 88% 76 30.13 1019.4
13 22:53 NE 3 10.00 Mostly Cloudy BKN095 75.9 71.1 85% 76 30.12 1019.3
13 21:53 Calm 10.00 Fair CLR 80.1 70 71% 83 30.12 1019.1
13 20:53 Calm 10.00 Fair CLR 82 70 67% 86 30.12 1019.0
13 19:53 S 5 10.00 Fair CLR 84.9 70 91 84.9 61% 89 30.11 1018.8
13 18:53 S 5 10.00 A Few Clouds FEW120 87.1 70 57% 92 30.1 1018.4
13 17:53 E 7 10.00 Partly Cloudy SCT043 SCT060 89.1 70 53% 94 30.1 1018.3
13 16:53 SE 5 10.00 Partly Cloudy SCT045 88 70 55% 93 30.1 1018.5
13 15:53 E 5 10.00 A Few Clouds FEW042 90 70 52% 95 30.11 1018.7
13 14:53 Vrbl 7 10.00 Fair CLR 88 70 55% 93 30.12 1019.2
13 13:53 E 5 10.00 Partly Cloudy SCT026 87.1 71.1 87.1 72 59% 93 30.13 1019.6
13 12:53 E 6 10.00 Partly Cloudy SCT026 84 71.1 65% 89 30.16 1020.5
13 11:53 E 6 10.00 Mostly Cloudy SCT021 BKN028 82.9 71.1 67% 88 30.18 1021.0
13 10:53 E 5 10.00 Overcast BKN020 OVC026 80.1 72 76% 84 30.18 1021.4
13 09:53 E 5 10.00 Mostly Cloudy BKN008 BKN022 77 71.1 82% 79 30.19 1021.5
13 08:53 Calm 10.00 Overcast BKN004 OVC009 73 71.1 94% 30.19 1021.6
13 07:53 Calm 10.00 Overcast OVC002 72 70 72 70 94% 30.17 1021.2 0.02
13 06:53 Calm 8.00 Overcast BKN002 OVC011 71.1 70 96% 30.18 1021.3
13 05:53 Calm 7.00 Overcast FEW002 OVC011 71.1 70 96% 30.17 1020.9
13 04:53 NW 3 6.00 Fog/Mist OVC005 71.1 70 96% 30.16 1020.5 0.02
13 03:53 N 3 3.00 Light Rain Fog/Mist BKN005 BKN018 OVC038 71.1 70 96% 30.15 1020.2 0.01
13 02:53 Calm 7.00 Overcast BKN018 OVC025 71.1 70 96% 30.16 1020.5 0.01
13 01:53 E 3 3.00 Light Rain Fog/Mist OVC007 71.1 69.1 72 70 94% 30.17 1021.1 0.01 0.01
13 00:53 Calm 7.00 Overcast OVC007 71.1 69.1 94% 30.18 1021.3
12 23:53 Calm 10.00 Overcast OVC010 71.1 69.1 94% 30.19 1021.6
12 22:53 Calm 10.00 Overcast BKN010 OVC090 70 69.1 97% 30.18 1021.2
12 21:53 N 3 10.00 Overcast SCT016 BKN075 OVC100 71.1 69.1 94% 30.17 1021.1
12 20:53 N 5 8.00 Overcast FEW039 FEW048 OVC060 71.1 69.1 94% 30.18 1021.3
12 19:53 NE 3 6.00 Fog/Mist SCT049 BKN070 OVC090 72 69.1 77 72 91% 30.18 1021.4 0.04
12 18:53 N 3 6.00 Light Rain Fog/Mist SCT047 OVC055 73 71.1 94% 30.17 1021.2 0.04
12 17:53 N 3 10.00 Overcast BKN030 OVC070 75.9 69.1 79% 77 30.17 1021.0
12 16:53 NE 6 10.00 Overcast OVC065 75.9 69.1 79% 77 30.17 1021.0
12 15:53 Vrbl 5 10.00 Overcast OVC065 75.9 69.1 79% 77 30.17 1021.1
12 14:53 NE 6 10.00 Overcast BKN014 OVC070 75.9 69.1 79% 77 30.18 1021.2
12 13:53 E 5 10.00 Overcast OVC100 75 68 75 68 79% 76 30.18 1021.2 0.26
12 12:53 N 7 10.00 Mostly Cloudy FEW065 BKN100 BKN120 73.9 68 82% 30.18 1021.2
12 11:53 SE 5 10.00 Overcast FEW009 OVC085 71.1 66.9 87% 30.2 1021.9
12 10:53 N 5 6.00 Light Rain Fog/Mist BKN110 69.1 66.9 93% 30.17 1020.8 0.05 0.26
12 09:53 N 3 7.00 Light Rain OVC009 69.1 66 90% 30.18 1021.3 0.07
12 08:53 Calm 5.00 Rain BKN008 OVC080 70 64.9 84% 30.21 1022.2 0.14
12 07:53 E 3 10.00 Rain BKN032 OVC095 72 66 73.9 70 82% 30.16 1020.4 0.01 0.01
12 06:53 Calm 10.00 Overcast OVC100 71.1 64 79% 30.12 1019.2
12 05:53 Calm 10.00 Overcast OVC095 71.1 63 76% 30.11 1018.9
12 04:53 Calm 10.00 Mostly Cloudy BKN095 BKN120 72 63 73% 30.11 1018.9
12 03:53 Calm 10.00 Fair CLR 72 62.1 71% 30.09 1018.3
12 02:53 N 3 10.00 Fair CLR 73 62.1 69% 30.08 1017.8
12 01:53 N 6 10.00 Fair CLR 73.9 63 84 73.9 69% 30.1 1018.3
12 00:53 N 6 10.00 Fair CLR 75.9 63 64% 78 30.1 1018.5
11 23:53 NE 6 10.00 A Few Clouds FEW055 75.9 64.9 69% 78 30.09 1018.2
11 22:53 N 3 10.00 Mostly Cloudy BKN060 BKN080 75.9 66 72% 77 30.08 1017.7
11 21:53 NE 3 10.00 Light Rain SCT070 77 66 69% 79 30.06 1017.3
11 20:53 E 5 10.00 Fair CLR 81 66 61% 83 30.04 1016.5
11 19:53 E 6 10.00 Fair CLR 84 64.9 91 84 53% 86 30.03 1016.0
11 18:53 E 6 10.00 Fair CLR 86 62.1 45% 87 30.02 1015.6
11 17:53 E 9 10.00 Fair CLR 88 62.1 42% 88 30 1015.2
11 16:53 E 7 10.00 Fair CLR 89.1 61 39% 89 30 1015.0
11 15:53 S 9 10.00 Fair CLR 89.1 61 39% 89 29.99 1014.7
11 14:53 E 7 10.00 Fair CLR 90 60.1 37% 90 29.99 1014.8
11 13:53 Vrbl 3 10.00 Fair CLR 88 59 89.1 73 38% 87 30 1015.0
11 12:53 NW 6 10.00 Fair CLR 87.1 60.1 40% 87 30.01 1015.3
11 11:53 Vrbl 5 10.00 Fair CLR 84.9 59 42% 85 30.02 1015.6
11 10:53 Vrbl 3 10.00 Fair CLR 82 57.9 44% 82 30.02 1015.6
11 09:53 NW 9 10.00 Fair CLR 81 57.9 45% 81 30.02 1015.5
Date Time (edt) Wind (mph) Vis. (mi.) Weather Sky Cond. Air Dwpt Max. Min. Relative Humidity Wind Chill (°F) Heat Index (°F) altimeter (in) sea level (mb) 1 hr 3 hr 6 hr
6 hour
Temperature (ºF) Pressure Precipitation (in)